| time (UTC) | temp F | wind direction | speed MPH | gust MPH | rain 1hr in | rain 24hr in | rain mn in | humidity % | barometer mb |
| 20260506091524 | 64 | 360 | 0.0 | 7.0 | 0.00 | 0.01 | 0.00 | 75 | 1008.5 |
| 20260506085624 | 65 | 360 | 0.0 | 6.0 | 0.00 | 0.01 | 0.00 | 74 | 1008.6 |
| 20260506083724 | 65 | 360 | 0.0 | 5.0 | 0.00 | 0.01 | 0.00 | 73 | 1008.7 |
| 20260506081824 | 66 | 360 | 0.0 | 6.0 | 0.00 | 0.01 | 0.00 | 71 | 1008.6 |
| 20260506072124 | 67 | 360 | 3.0 | 10.0 | 0.00 | 0.01 | 0.00 | 68 | 1008.7 |
| 20260506070224 | 67 | 360 | 3.0 | 10.0 | 0.00 | 0.01 | 0.00 | 67 | 1008.7 |
| 20260506062444 | 68 | 360 | 1.0 | 8.0 | 0.00 | 0.01 | 0.00 | 64 | 1008.9 |
| 20260506060523 | 68 | 360 | 3.0 | 8.0 | 0.00 | 0.01 | 0.00 | 64 | 1008.8 |
| 20260506050904 | 69 | 360 | 4.0 | 8.0 | 0.00 | 0.01 | 0.00 | 60 | 1009.4 |
| 20260506044924 | 70 | 360 | 1.0 | 8.0 | 0.00 | 0.01 | 0.00 | 59 | 1009.3 |
| 20260506043024 | 70 | 360 | 1.0 | 5.0 | 0.00 | 0.01 | 0.00 | 57 | 1009.3 |
| 20260506041123 | 70 | 360 | 1.0 | 8.0 | 0.00 | 0.01 | 0.00 | 57 | 1009.2 |
| 20260506035622 | 70 | 360 | 1.0 | 10.0 | 0.00 | 0.01 | 0.01 | 56 | 1009.2 |
| 20260506033722 | 70 | 360 | 4.0 | 9.0 | 0.00 | 0.01 | 0.01 | 56 | 1009.3 |
| 20260506031822 | 71 | 360 | 0.0 | 5.0 | 0.00 | 0.01 | 0.01 | 55 | 1009.2 |
| 20260506025922 | 72 | 360 | 2.0 | 9.0 | 0.00 | 0.01 | 0.01 | 54 | 1009.1 |
| 20260506024022 | 72 | 360 | 2.0 | 9.0 | 0.00 | 0.01 | 0.01 | 53 | 1009.1 |
| 20260506022123 | 72 | 360 | 3.0 | 11.0 | 0.00 | 0.01 | 0.01 | 52 | 1009.0 |
| 20260506020222 | 73 | 360 | 7.0 | 10.0 | 0.00 | 0.01 | 0.01 | 51 | 1008.8 |
| 20260506014323 | 75 | 360 | 4.0 | 10.0 | 0.00 | 0.01 | 0.01 | 47 | 1008.7 |
| 20260506012443 | 77 | 360 | 5.0 | 11.0 | 0.00 | 0.01 | 0.01 | 41 | 1008.3 |
| 20260506010526 | 78 | 360 | 2.0 | 9.0 | 0.00 | 0.01 | 0.01 | 39 | 1008.0 |
| 20260506004622 | 78 | 360 | 7.0 | 13.0 | 0.00 | 0.01 | 0.01 | 37 | 1007.8 |
| 20260506002722 | 79 | 360 | 3.0 | 11.0 | 0.00 | 0.01 | 0.01 | 34 | 1007.4 |
| 20260506000822 | 79 | 360 | 3.0 | 8.0 | 0.00 | 0.01 | 0.01 | 33 | 1007.3 |
| 20260505234922 | 80 | 360 | 1.0 | 10.0 | 0.00 | 0.01 | 0.01 | 32 | 1007.4 |
| 20260505233042 | 80 | 360 | 3.0 | 6.0 | 0.00 | 0.01 | 0.01 | 31 | 1007.1 |
| 20260505231123 | 81 | 360 | 1.0 | 9.0 | 0.00 | 0.01 | 0.01 | 29 | 1006.9 |
| 20260505225223 | 82 | 360 | 3.0 | 15.0 | 0.00 | 0.01 | 0.01 | 29 | 1006.6 |
| 20260505223322 | 82 | 360 | 1.0 | 11.0 | 0.00 | 0.01 | 0.01 | 29 | 1006.4 |
| 20260505221422 | 82 | 360 | 3.0 | 13.0 | 0.00 | 0.01 | 0.01 | 29 | 1006.2 |
| 20260505215523 | 82 | 360 | 5.0 | 16.0 | 0.00 | 0.01 | 0.01 | 29 | 1006.4 |
| 20260505213622 | 83 | 360 | 15.0 | 15.0 | 0.00 | 0.01 | 0.01 | 28 | 1006.0 |
| 20260505211722 | 83 | 360 | 9.0 | 16.0 | 0.00 | 0.01 | 0.01 | 29 | 1005.7 |
| 20260505205822 | 84 | 360 | 3.0 | 17.0 | 0.00 | 0.01 | 0.01 | 29 | 1005.7 |
| 20260505203922 | 84 | 360 | 3.0 | 10.0 | 0.00 | 0.01 | 0.01 | 28 | 1005.9 |
| 20260505202022 | 84 | 360 | 4.0 | 22.0 | 0.00 | 0.01 | 0.01 | 29 | 1006.1 |
| 20260505200122 | 84 | 360 | 8.0 | 14.0 | 0.00 | 0.01 | 0.01 | 28 | 1006.2 |
| 20260505194222 | 85 | 360 | 3.0 | 18.0 | 0.00 | 0.01 | 0.01 | 29 | 1006.5 |
| 20260505192322 | 84 | 360 | 3.0 | 15.0 | 0.00 | 0.01 | 0.01 | 30 | 1006.8 |
| 20260505190423 | 84 | 360 | 3.0 | 12.0 | 0.00 | 0.01 | 0.01 | 33 | 1006.9 |
| 20260505184522 | 84 | 360 | 3.0 | 17.0 | 0.00 | 0.01 | 0.01 | 33 | 1007.2 |
| 20260505182642 | 85 | 360 | 4.0 | 15.0 | 0.00 | 0.01 | 0.01 | 32 | 1007.2 |
| 20260505180723 | 84 | 360 | 6.0 | 15.0 | 0.00 | 0.01 | 0.01 | 35 | 1007.4 |
| 20260505174822 | 84 | 360 | 5.0 | 13.0 | 0.00 | 0.01 | 0.01 | 38 | 1007.7 |
| 20260505172922 | 83 | 360 | 3.0 | 14.0 | 0.00 | 0.01 | 0.01 | 37 | 1007.9 |
| 20260505171022 | 82 | 360 | 2.0 | 11.0 | 0.00 | 0.01 | 0.01 | 40 | 1008.0 |
| 20260505165142 | 80 | 360 | 6.0 | 10.0 | 0.00 | 0.01 | 0.01 | 41 | 1008.4 |
| 20260505163222 | 79 | 360 | 3.0 | 10.0 | 0.00 | 0.01 | 0.01 | 43 | 1008.7 |
| 20260505161322 | 79 | 360 | 3.0 | 10.0 | 0.00 | 0.01 | 0.01 | 42 | 1009.0 |
| 20260505151622 | 76 | 360 | 8.0 | 10.0 | 0.00 | 0.01 | 0.01 | 46 | 1009.6 |
| 20260505124422 | 63 | 360 | 0.0 | 3.0 | 0.00 | 0.01 | 0.01 | 74 | 1009.8 |
| 20260505122522 | 60 | 360 | 0.0 | 5.0 | 0.00 | 0.01 | 0.01 | 80 | 1010.1 |
| 20260505120642 | 57 | 360 | 3.0 | 5.0 | 0.00 | 0.01 | 0.01 | 82 | 1010.2 |
| 20260505114722 | 56 | 360 | 0.0 | 0.0 | 0.00 | 0.01 | 0.01 | 82 | 1010.0 |
| 20260505112822 | 55 | 360 | 0.0 | 1.0 | 0.00 | 0.01 | 0.01 | 82 | 1009.9 |
| 20260505110922 | 54 | 360 | 1.0 | 1.0 | 0.00 | 0.00 | 0.00 | 82 | 1010.1 |
| 20260505101222 | 50 | 360 | 0.0 | 0.0 | 0.00 | 0.00 | 0.00 | 82 | 1010.0 |
| 20260505095322 | 51 | 360 | 0.0 | 1.0 | 0.00 | 0.00 | 0.00 | 82 | 1009.8 |
| 20260505093442 | 51 | 360 | 0.0 | 0.0 | 0.00 | 0.00 | 0.00 | 82 | 1009.3 |